Theta_e
291 287 285 288 289 288 286 284 283 286 291 289 289 288 287 289 288 286 286 287 287 287 289 290 290 289 290 290 291 292 292 293 295 296 298 299 298 299 298 298 298 301 305 308
288 285 290 290 289 288 286 284 284 288 290 288 288 286 286 287 287 287 286 286 286 287 287 288 288 288 288 288 289 290 291 291 292 294 293 295 294 295 295 295 295 295 296 297
287 291 293 291 288 287 286 285 285 286 287 286 284 284 285 286 287 288 287 287 287 286 286 286 286 286 286 286 287 289 289 290 291 292 292 292 291 290 290 290 290 291 292 292
288 292 291 288 288 289 285 290 289 287 283 280 284 279 282 284 284 285 285 284 284 285 286 286 286 285 285 285 286 288 288 289 289 290 290 288 287 285 286 287 287 288 289 288
289 289 288 288 289 291 288 289 287 285 282 280 281 279 280 283 282 282 283 284 284 285 285 284 284 285 285 284 283 284 286 286 287 287 287 286 284 285 284 284 284 284 286 286
290 290 289 290 289 290 290 286 286 283 281 277 281 282 281 281 283 283 284 284 284 284 283 284 285 284 284 284 283 282 284 285 285 285 285 284 283 282 282 282 282 282 283 284
286 287 288 289 287 287 286 285 279 276 275 277 281 279 282 284 285 286 284 283 283 283 282 282 282 282 283 283 283 283 282 282 283 284 284 283 282 282 281 281 281 281 281 282
283 283 288 289 288 286 284 285 279 271 273 276 281 279 282 283 285 286 284 283 283 283 283 283 283 283 282 283 282 282 282 282 282 283 283 283 284 283 283 283 282 282 281 282
283 284 287 288 289 290 284 282 286 278 276 272 279 281 282 282 281 281 281 281 281 281 282 283 283 283 283 282 282 283 282 283 283 284 284 283 284 284 283 283 283 282 283 284
289 283 287 287 288 286 286 288 281 279 270 269 276 278 280 279 279 280 280 281 281 281 282 282 282 282 282 283 283 284 284 284 283 282 282 281 282 283 282 281 280 280 281 281
290 288 284 287 285 284 284 282 282 282 277 271 269 276 283 283 282 281 282 283 282 281 281 281 282 283 284 283 282 282 282 282 282 282 282 281 282 281 281 281 280 280 281 280
291 285 276 283 285 286 285 284 284 281 277 278 277 279 284 286 285 284 284 284 282 281 281 281 282 282 281 281 280 280 281 281 281 281 281 280 280 280 279 279 280 280 280 281
291 283 275 282 282 284 283 284 283 283 280 280 277 278 284 284 283 284 283 283 282 281 280 280 280 280 280 280 280 279 279 279 280 279 279 279 279 278 278 279 279 279 279 279
294 285 281 280 280 282 281 284 284 283 278 278 280 282 280 282 282 282 283 283 281 280 279 278 278 278 278 279 278 278 278 278 279 279 278 278 278 278 278 279 278 278 278 278
289 283 280 281 282 282 282 281 283 280 281 278 280 280 282 283 283 283 283 281 280 278 277 277 277 277 277 278 278 278 277 278 278 277 277 277 278 278 277 277 277 277 277 277
284 278 279 279 280 281 279 281 281 282 282 279 280 280 282 283 282 280 280 279 278 278 277 278 279 279 279 279 278 279 277 278 277 276 276 277 276 276 276 275 274 274 273 273
281 278 276 278 274 274 272 277 279 280 280 281 277 282 278 276 279 280 279 277 277 277 278 278 278 278 279 278 279 276 276 276 276 275 274 274 274 272 272 272 271 270 270 270
280 279 277 270 269 268 277 273 275 277 279 276 275 272 275 277 277 277 277 277 277 277 278 278 278 277 278 277 276 276 275 274 274 272 270 271 271 269 269 269 268 268 268 267
281 278 270 271 265 270 276 274 272 271 271 274 276 273 275 275 274 273 277 277 277 278 279 278 278 277 276 275 274 273 272 272 271 270 270 269 268 266 266 264 265 265 265 264
278 280 279 264 267 263 272 271 274 275 267 269 272 273 274 274 269 272 276 278 278 279 278 278 277 276 275 272 272 271 270 269 268 269 268 268 267 262 263 263 263 263 262 263
269 272 274 269 271 268 273 274 276 266 270 270 272 274 275 273 275 277 277 277 278 278 277 276 275 274 272 272 270 269 268 267 268 267 266 265 264 262 262 261 262 261 260 261
268 268 266 269 269 266 274 274 271 275 275 274 275 276 276 277 277 277 277 277 278 275 275 274 271 271 270 270 268 267 266 267 265 265 264 261 260 260 261 259 259 259 259 258
268 271 268 272 270 274 275 276 279 278 276 277 278 278 278 278 277 277 276 277 277 274 273 271 269 268 268 267 266 263 265 264 264 258 256 256 258 259 260 258 258 258 259 258
270 273 268 269 272 274 277 278 279 279 279 279 279 279 278 277 277 276 276 276 274 272 270 267 266 265 265 264 265 262 262 263 254 251 255 257 258 259 259 260 260 258 258 258
273 272 269 269 274 275 277 278 280 280 279 278 277 277 277 276 276 276 275 273 272 270 269 267 265 265 263 263 261 257 259 256 254 254 257 258 258 257 259 260 259 260 261 262
273 271 270 268 276 277 278 279 280 279 278 278 277 275 276 276 276 275 273 272 270 268 266 264 263 262 261 259 258 256 253 252 251 255 257 258 258 258 259 258 258 264 266 268
Wind_Speed
1 4 8 13 12 3 3 4 4 4 5 1 6 4 6 6 9 8 7 8 9 10 8 11 12 12 13 16 17 17 17 16 12 6 4 6 8 8 10 10 14 14 12 11
4 7 13 4 5 6 3 4 7 5 5 5 6 1 3 6 4 5 6 7 7 7 11 12 13 14 14 13 15 16 17 16 13 9 4 5 3 6 6 8 12 13 14 13
8 7 4 7 5 5 5 6 5 7 3 2 3 5 3 4 7 9 8 7 8 7 8 9 12 11 11 14 13 14 14 16 14 13 7 5 5 5 8 11 9 12 13 13
7 6 6 5 6 8 5 7 6 3 3 4 2 6 2 5 5 6 6 6 6 5 5 6 7 8 9 9 10 12 14 14 14 13 13 15 10 8 4 5 6 8 13 14
7 4 4 5 6 5 6 3 5 3 3 2 3 1 4 7 5 5 4 5 4 4 5 6 5 6 6 7 8 7 13 14 13 14 12 9 10 6 4 6 9 9 9 11
6 2 4 6 2 6 4 4 5 4 3 1 9 8 4 6 6 7 6 6 6 5 5 5 4 5 6 6 7 6 11 11 10 11 10 11 10 8 8 8 7 6 5 6
1 4 1 2 4 3 5 5 3 4 2 6 2 3 5 3 2 14 14 9 7 6 5 5 6 6 6 7 7 6 8 9 7 8 8 8 8 7 7 5 4 5 5 4
6 4 7 4 6 8 6 7 7 7 3 4 2 7 4 2 4 13 11 9 7 6 5 6 6 5 6 6 6 6 7 7 7 7 7 6 7 4 4 4 3 3 3 3
6 5 1 3 3 5 5 5 5 7 2 3 5 2 2 3 5 7 9 7 8 7 7 7 6 6 6 6 5 5 7 6 5 5 5 6 5 5 4 5 3 3 3 5
5 1 2 2 3 2 5 6 4 2 1 5 4 6 6 8 10 9 10 11 9 8 8 7 6 6 4 5 4 4 5 5 5 6 5 4 4 4 4 4 5 6 5 5
6 5 2 3 6 9 3 3 4 4 5 6 2 7 4 13 16 17 15 15 12 11 9 8 7 6 5 4 3 4 3 3 2 3 3 5 5 6 6 6 6 6 7 7
4 6 4 8 1 3 2 6 7 7 7 4 2 13 1 10 17 16 16 11 8 8 9 8 8 7 6 5 4 4 3 2 3 3 3 4 4 5 5 6 6 6 7 9
8 0 3 6 2 1 4 4 4 5 4 15 6 10 3 5 10 13 10 8 8 9 9 8 7 7 7 6 5 5 4 5 4 3 3 4 5 5 5 6 6 6 6 7
3 4 8 13 7 5 5 6 6 6 6 5 17 12 4 5 9 8 7 8 9 10 10 7 7 7 6 6 5 5 5 4 4 2 2 4 5 6 6 6 6 6 6 8
7 10 5 1 2 3 5 6 11 10 9 10 8 10 6 11 12 11 8 6 7 8 9 8 7 7 7 6 6 5 3 1 2 4 3 4 4 4 5 5 7 7 9 10
1 2 2 2 2 3 5 9 7 9 6 6 5 20 7 5 4 6 7 8 8 8 8 8 8 6 7 7 6 3 3 4 3 4 5 5 5 7 8 8 10 11 12 12
5 6 4 9 2 3 8 11 16 9 8 11 14 18 5 4 8 8 6 7 10 8 7 7 8 8 7 6 5 5 4 2 4 4 3 4 4 5 8 10 11 12 13 13
7 5 1 4 2 9 2 2 2 11 9 7 3 3 5 5 5 5 5 8 8 8 7 7 6 6 4 5 5 5 3 3 3 2 3 3 5 7 9 10 11 12 11 13
3 6 4 4 4 8 9 6 8 9 11 9 10 4 4 5 4 2 6 6 8 8 8 6 5 4 6 6 4 4 3 3 3 3 2 4 5 8 10 11 12 12 12 13
2 3 6 4 4 9 7 2 4 4 8 8 7 7 8 7 3 6 9 7 8 7 4 6 6 5 6 4 4 4 2 2 3 2 5 6 6 5 10 11 12 11 11 14
3 1 9 7 8 9 7 5 4 7 9 3 6 6 8 6 7 4 7 7 6 5 6 7 7 6 6 5 4 2 0 3 1 3 6 6 6 8 10 11 9 11 12 13
9 9 5 2 4 10 6 6 9 7 1 5 5 5 8 8 6 5 7 8 7 7 8 7 6 6 5 5 3 0 3 1 2 4 5 6 8 8 8 10 11 10 11 12
3 9 8 12 7 0 7 5 8 6 7 6 5 6 9 8 8 8 8 9 8 10 9 5 7 6 5 5 4 3 2 3 3 3 6 7 8 9 9 9 11 10 10 9
6 5 3 5 4 5 8 7 4 8 9 8 7 9 8 8 8 8 7 6 6 8 9 6 7 6 5 5 3 3 3 3 2 5 7 7 7 8 8 7 8 8 9 9
6 8 7 2 5 1 8 9 13 9 6 4 5 8 10 8 8 8 6 6 7 8 7 8 7 6 6 5 4 4 4 2 4 5 6 7 6 6 8 8 8 9 11 12
7 8 6 7 8 7 6 10 12 10 10 11 10 6 8 10 12 7 7 6 8 8 7 6 5 5 5 5 5 4 4 4 4 5 5 5 6 6 7 8 10 18 22 24
Wind_Direction
42 118 205 203 200 176 173 190 231 261 263 294 239 254 4 2 49 63 64 63 54 40 19 28 29 28 31 32 33 30 33 22 31 19 21 34 54 42 41 36 29 28 28 25
60 221 230 140 182 213 218 240 253 274 265 170 282 245 105 54 53 62 75 67 58 47 32 26 24 31 33 37 36 36 37 34 35 37 26 46 49 48 49 36 36 32 34 31
177 217 166 174 176 167 220 196 226 220 341 308 327 291 182 60 81 81 62 66 57 55 50 32 33 24 29 37 37 43 40 42 38 38 37 38 51 38 32 25 27 26 30 32
235 248 186 175 208 149 232 207 222 182 120 228 47 278 231 127 82 59 64 58 61 64 59 51 39 39 39 33 36 50 56 49 44 43 55 57 57 59 19 20 27 31 31 33
243 177 170 195 212 158 231 145 165 145 135 87 279 323 251 122 162 166 144 126 111 95 85 76 62 58 35 29 48 37 60 54 52 54 55 68 62 49 20 29 33 28 30 36
236 267 179 205 108 162 132 103 54 53 106 273 216 177 226 186 187 164 169 159 153 133 113 96 83 73 62 42 49 44 63 59 53 61 59 66 71 58 49 29 29 14 10 21
309 240 196 148 84 32 76 72 333 336 354 235 122 150 256 306 278 178 164 161 171 161 142 117 93 80 71 60 54 68 69 65 63 73 69 68 75 68 61 47 20 14 8 4
170 274 165 185 176 181 179 160 160 232 210 267 327 238 258 344 56 121 138 159 163 172 160 139 127 109 94 83 72 68 67 72 60 65 63 66 65 61 68 51 23 5 18 344
144 263 162 164 146 138 182 186 176 109 89 41 231 288 212 98 88 116 144 161 184 180 178 166 153 135 117 104 86 91 84 70 71 80 76 56 53 53 42 38 26 333 346 348
191 249 200 171 110 41 155 161 98 14 214 247 278 272 237 207 184 175 183 193 195 190 180 168 156 156 150 138 137 125 100 84 56 54 57 66 59 40 23 17 10 345 341 332
143 146 235 120 202 179 153 174 68 126 141 178 251 257 215 199 186 186 195 201 189 187 180 172 176 168 153 152 118 84 79 71 39 32 11 4 360 355 353 351 348 341 339 336
190 133 174 206 179 319 300 186 159 193 228 238 174 259 250 197 186 184 200 198 190 181 177 172 177 170 172 173 175 196 214 227 250 256 249 269 302 325 326 321 315 317 317 320
184 150 41 327 352 349 217 215 151 113 82 219 195 254 16 115 165 196 191 195 182 181 172 175 174 184 190 197 208 220 232 248 266 286 297 303 307 312 302 294 293 295 290 285
101 166 183 225 205 138 178 203 188 159 197 191 232 261 225 191 206 194 199 197 191 186 177 179 188 196 204 215 218 234 256 255 264 244 289 308 322 320 310 306 303 297 291 294
161 221 173 32 107 138 203 200 187 192 205 199 241 223 209 201 206 202 199 190 182 183 180 191 197 208 214 225 233 232 228 72 62 67 28 341 322 321 323 329 329 326 323 313
354 186 91 213 6 18 286 237 221 234 242 260 258 263 150 206 199 175 197 194 183 185 187 194 205 207 216 216 211 154 102 78 49 36 14 354 350 347 344 337 329 320 314 315
143 132 127 241 46 130 282 236 203 206 196 200 222 246 136 197 216 225 225 185 189 180 173 185 195 203 210 204 168 139 114 54 30 31 10 351 359 351 333 325 321 317 314 311
137 117 120 146 83 221 236 113 136 228 252 218 279 211 177 185 210 223 203 181 173 174 187 198 200 211 166 127 110 117 77 61 53 24 346 8 353 328 321 314 310 308 306 307
75 131 146 179 205 318 277 187 172 172 255 204 214 184 165 130 89 289 198 186 181 176 187 202 210 165 137 131 115 93 66 42 25 341 351 352 334 313 313 306 304 306 304 300
81 329 198 130 191 214 261 324 136 116 285 215 181 155 153 146 131 239 195 187 185 191 185 184 144 126 130 120 96 74 44 27 318 342 328 320 308 295 299 297 300 296 291 292
125 173 217 203 226 275 218 175 160 110 244 163 174 161 157 179 196 204 165 168 183 194 172 137 142 146 134 117 103 123 173 271 325 335 310 301 303 296 287 286 289 291 291 291
159 163 201 156 214 260 156 67 160 208 14 154 189 186 191 213 154 173 170 183 181 171 159 152 141 141 132 119 107 211 250 314 317 286 291 293 288 284 290 285 288 288 291 292
232 190 184 187 202 118 220 187 199 173 163 201 190 197 200 205 204 193 201 212 201 174 157 138 145 143 141 135 145 209 241 293 278 300 279 276 275 275 277 281 289 296 292 290
252 159 185 95 237 208 215 228 228 204 213 188 198 195 183 201 213 220 222 214 171 161 156 143 145 161 176 172 191 211 262 272 262 268 277 279 275 286 282 277 284 289 288 289
191 129 140 277 269 122 259 229 229 227 234 202 217 191 205 202 232 219 228 195 170 160 145 152 165 171 185 181 212 237 252 244 273 270 275 277 275 281 294 284 288 286 281 283
178 157 162 210 207 176 217 218 218 213 216 222 211 226 225 196 223 204 217 175 161 156 143 151 162 165 183 192 228 244 237 208 228 269 273 286 296 297 297 299 300 296 299 305